AirNav   ATP
 
 1601 users online  

O63 Exeter Airport
Exeter, California, USA

GOING TO EXETER?


FAA INFORMATION EFFECTIVE 24 MAY 2018

Location

FAA Identifier: O63
Lat/Long: 36-14-32.9200N / 119-08-57.9000W
36-14.548667N / 119-08.965000W
36.2424778 / -119.1494167
(estimated)
Elevation: 344 ft. / 105 m (estimated)
Variation: 15E (1985)
From city: 3 miles S of EXETER, CA
Time zone: UTC -7 (UTC -8 during Standard Time)
Zip code: 93247

Airport Operations

Airport use: Open to the public
Activation date: 06/1947
Control tower: no
ARTCC: OAKLAND CENTER
FSS: RANCHO MURIETA FLIGHT SERVICE STATION
NOTAMs facility: RIU (NOTAM-D service available)
Attendance: UNATNDD
Pattern altitude: 1144 ft. MSL
Wind indicator: yes
Segmented circle: no

Airport Communications

CTAF: 122.9
WX AWOS-3PT at TLR (10 nm SW): 120.0 (559-686-2613)
WX AWOS-3PT at VIS (13 nm W): 119.925 (559-651-2418)
WX AWOS-3PT at PTV (13 nm S): 134.625 (559-784-3874)

Nearby radio navigation aids

VOR radial/distance  VOR name  Freq  Var
VISr099/17.7VISALIA VOR/DME109.4016E
TTEr326/20.7TULE VOR/DME109.2016E

 
NDB name  Hdg/Dist  Freq  Var  ID
SALYER FARMS044/21.320516ECOR -.-. --- .-.

Airport Services

Parking: tiedowns
Bottled oxygen: NONE
Bulk oxygen: NONE

Runway Information

Runway 13/31

Dimensions: 2315 x 40 ft. / 706 x 12 m
RUNWAY WIDTH REDUCED TO 40 FT.
Surface: asphalt/treated, in good condition
RUNWAY 13  RUNWAY 31
Latitude: 36-14.715833N36-14.381667N
Longitude: 119-09.078333W119-08.851000W
Elevation: 344.0 ft.342.0 ft.
Gradient: 0.1%0.1%
Traffic pattern: leftleft
Markings: NSTD, in good conditionNSTD, in good condition
Runway end identifier lights: nono
Obstructions: 5 ft. brush, 251 ft. from runway, 130 ft. right of centerline, 10:1 slope to clear
RWY 13 OBSTN CLNC SLOPE TO DSPLCD THR 27:1.
15 ft. road, 200 ft. from runway, 10 ft. left of centerline
+10 FT ROAD 140-200 FT FM RWY END 125 FT LEFT TO 10 FT LEFT.

Airport Ownership and Management from official FAA records

Ownership: Privately-owned
Owner: JAMES COSTA
18250 ROAD 152
EXETER, CA 93274-9565
Phone (559) 686-3559
Manager: SHELLEY COSTA
18250 ROAD 152
EXETER, CA 93274-9565
Phone (559) 686-3559

Airport Operational Statistics

Aircraft based on the field: 3
Single engine airplanes: 3
    
Aircraft operations: avg 33/month *
50% transient general aviation
50% local general aviation
* for 12-month period ending 03 May 2017

Instrument Procedures

There are no published instrument procedures at O63.

Some nearby airports with instrument procedures:

KTLR - Mefford Field Airport (10 nm SW)
KVIS - Visalia Municipal Airport (13 nm W)
KPTV - Porterville Municipal Airport (13 nm S)
KHJO - Hanford Municipal Airport (24 nm W)
KDLO - Delano Municipal Airport (30 nm S)
 
Loc | Ops | Rwys | IFR | FBO | Links
Com | Nav | Svcs | Stats | Notes

AirNav Hotels Sweepstakes
 
Area around O63 (Exeter Airport)
 
Road maps at: MapQuest Bing Google
 
Aerial photo
WARNING: Photo may not be current or correct
Aerial photo of O63 (Exeter Airport)
Do you have a better or more recent aerial photo of Exeter Airport that you would like to share? If so, please send us your photo.

 
Sectional chart

 
Airport distance calculator
Flying to Exeter Airport? Find the distance to fly.

From to O63

Sunrise and sunset
Times for 24-May-2018
 Local
(UTC-7)
 Zulu
(UTC)
Morning civil twilight05:1612:16
Sunrise05:4512:45
Sunset20:0203:02
Evening civil twilight20:3103:31

Current date and time
Zulu (UTC)  24-May-2018 19:38:37
Local (UTC-7)  24-May-2018 12:38:37
 
METAR
KVIS 
13nm W 
241856Z AUTO 29005KT 10SM CLR 22/11 A3001 RMK AO2 SLP168 T02220111
KPTV 
14nm S 
241856Z AUTO 29008KT 10SM CLR 23/11 A3001 RMK AO2 SLP172 T02280111
KHJO 
23nm W 
241853Z AUTO 00000KT 10SM CLR 23/11 A3001 RMK AO2 SLP163 T02280106
TAF
KVIS 
13nm W 
241730Z 2418/2518 30008KT P6SM SCT200 FM250000 29009G15KT P6SM SCT100 BKN200 FM251200 32012G18KT P6SM BKN050 OVC100
NOTAMs
Click for the latest NOTAMs
NOTAMs are issued by the DoD/FAA and will open in a separate window not controlled by AirNav.

 

 
 

Would you like to see your business listed on this page?

 If your business provides an interesting product or service to pilots, flight crews, aircraft, or users of the Exeter Airport, you should consider listing it here.  To start the listing process, click on the button below
 
Add a business
 

Other Pages about Exeter Airport

Update a link
 
Copyright © AirNav, LLC. All rights reserved. Privacy Policy  Contact